[[{"header":{"parameterUnit":"m.s-1","parameterCategory":2,"la1":30.2991,"la2":30.254,"lo1":-89.0895,"lo2":-89.0444,"dy":0.0017,"dx":0.0017,"nx":28,"ny":28,"refTime":"2025-08-16T09:00:00:Z","depth":"0","parameterNumber":2,"parameterNumberName":"U-component_of_CURRENTS"},"data":[0,0,0,0,0,0,0,0,0,0,0,0,0,0,0,0,0,0,0,0,0,0,0,0,0,0,0,0,0,0,0,0,0,0,0,0,0,0,0,0,0,0,0,0,0,0,0,0,0,0,0,0,0,0,0,0,0,0,-0.2141,-0.2143,0,-0.2248,-0.2248,-0.2248,-0.2242,-0.2242,-0.2242,-0.2241,-0.2149,-0.2147,-0.2145,0,0,0,0,0,0,0,0,0,0,0,0,0,-0.1953,-0.1955,-0.214,-0.2143,-0.2146,-0.2248,-0.2248,-0.2248,-0.2242,-0.2242,-0.2242,-0.2241,-0.215,-0.2147,-0.2144,0,0,0,0,0,0,0,0,0,0,0,0,0,-0.2031,-0.1955,-0.214,-0.2165,-0.217,-0.2248,-0.2248,-0.2248,-0.2242,-0.2242,-0.2242,-0.2241,-0.2151,-0.2147,-0.2144,-0.2131,0,0,-0.2134,-0.2132,0,0,0,0,0,0,0,0,-0.2026,-0.2036,-0.2159,-0.2164,-0.2169,-0.2244,-0.2149,-0.2204,-0.2242,-0.22,-0.2241,-0.2241,-0.2171,-0.2166,-0.217,-0.2127,-0.2123,-0.2133,-0.2131,-0.213,-0.2129,0,0,0,0,0,0,0,-0.2021,-0.2032,-0.2168,-0.2162,-0.2169,-0.218,-0.2189,-0.2159,-0.2172,-0.2204,-0.2207,-0.2241,-0.2171,-0.2174,-0.2168,-0.2121,-0.2134,-0.2131,-0.2129,-0.2127,-0.2104,-0.2105,0,0,0,0,0,0,-0.2036,-0.2027,-0.2165,-0.2173,-0.2111,-0.2185,-0.2194,-0.2208,-0.2177,-0.2177,-0.2242,-0.2241,-0.218,-0.2172,-0.2164,-0.2177,-0.213,-0.2127,-0.2125,-0.2102,-0.2104,-0.2106,0,0,0,0,0,0,-0.2031,-0.2046,-0.2161,-0.2115,-0.2132,-0.219,-0.2205,-0.2211,-0.2226,-0.2211,-0.2204,-0.2254,-0.2179,-0.2169,-0.215,-0.2171,-0.2125,-0.2122,-0.2101,-0.2103,-0.2105,-0.2181,0,0,0,0,0,0,-0.2024,-0.2043,-0.2043,-0.2115,-0.2136,-0.2224,-0.2207,-0.2214,-0.2254,-0.2254,-0.2218,-0.2209,-0.2178,-0.2155,-0.2147,-0.2166,-0.212,-0.2099,-0.2102,-0.2104,-0.2177,-0.2186,-0.2193,0,0,0,0,0,-0.2017,-0.2036,-0.2042,-0.2059,-0.2138,-0.2227,-0.2237,-0.2267,-0.2256,-0.2273,-0.2244,-0.2211,-0.2166,-0.2153,-0.2143,-0.2162,-0.2098,-0.2101,-0.2104,-0.2173,-0.2184,-0.2193,0,0,0,0,0,0,-0.1964,-0.2041,-0.2048,-0.209,-0.216,-0.2232,-0.2255,-0.2276,-0.2269,-0.2258,-0.2219,-0.2208,-0.2201,-0.2174,-0.2161,-0.2166,-0.213,-0.2131,-0.2187,-0.2196,-0.2204,-0.2217,-0.2117,0,0,0,0,0,-0.1953,-0.1974,-0.2065,-0.2096,-0.2133,-0.2189,-0.2224,-0.2256,-0.2277,-0.2275,-0.2251,-0.2224,-0.2206,-0.2195,-0.2171,-0.2167,-0.2144,-0.2177,-0.2186,-0.2193,-0.2198,-0.2215,-0.2225,-0.2116,-0.2116,-0.2116,0,0,-0.1945,-0.1988,-0.2002,-0.2085,-0.213,-0.2199,-0.2205,-0.2276,-0.2315,-0.2262,-0.2271,-0.2245,-0.2211,-0.2211,-0.2207,-0.219,-0.2204,-0.2196,-0.2203,-0.2204,-0.2219,-0.223,-0.2239,-0.2118,-0.2117,-0.2117,0,0,-0.1961,-0.1976,-0.2011,-0.2076,-0.2169,-0.2207,-0.2234,-0.231,-0.2319,-0.2341,-0.2312,-0.2309,-0.2273,-0.2269,-0.2257,-0.2297,-0.2245,-0.2285,-0.2335,-0.2352,-0.2361,-0.2369,-0.2321,-0.2324,-0.2292,-0.2292,-0.2292,0,-0.1946,-0.2006,-0.2039,-0.2109,-0.2168,-0.2214,-0.2289,-0.2311,-0.2365,-0.2377,-0.2351,-0.234,-0.2307,-0.2327,-0.2335,-0.2317,-0.2291,-0.2299,-0.2363,-0.237,-0.2377,-0.2326,-0.2329,-0.2296,-0.2296,-0.2295,-0.2295,0,-0.2003,-0.2061,-0.2097,-0.218,-0.2238,-0.2316,-0.2378,-0.2407,-0.2412,-0.2439,-0.2458,-0.2425,-0.2421,-0.2416,-0.2377,-0.2416,-0.2367,-0.2369,-0.2338,-0.2393,-0.2335,-0.2336,-0.2302,-0.23,-0.2299,-0.2298,0,0,-0.1954,-0.2104,-0.2116,-0.2181,-0.2289,-0.2351,-0.2404,-0.2479,-0.2515,-0.2531,-0.2568,-0.2548,-0.2534,-0.252,-0.2489,-0.25,-0.2505,-0.245,-0.2449,-0.2401,-0.2491,-0.2374,-0.2362,-0.2518,-0.252,-0.2521,-0.242,0,-0.1993,-0.2122,-0.2185,-0.2308,-0.2389,-0.245,-0.2498,-0.2561,-0.2582,-0.2617,-0.2609,-0.2617,-0.2573,-0.2564,-0.2574,-0.2517,-0.2516,-0.2529,-0.2446,-0.2443,-0.2333,-0.2364,-0.2239,-0.2133,-0.2421,-0.2421,-0.2421,0,-0.2025,-0.2116,-0.2233,-0.239,-0.2428,-0.2489,-0.2578,-0.2634,-0.2687,-0.2701,-0.2722,-0.2705,-0.27,-0.2663,-0.2615,-0.2619,-0.2561,-0.2523,-0.2519,-0.2386,-0.2329,-0.2132,-0.2123,-0.2118,-0.2422,-0.2422,-0.2422,0,-0.1967,-0.2151,-0.2234,-0.2291,-0.2456,-0.2502,-0.2575,-0.265,-0.2686,-0.2745,-0.2752,-0.2773,-0.2727,-0.2716,-0.26,-0.2614,-0.2531,-0.2547,-0.239,-0.2378,-0.2244,-0.2218,-0.2221,-0.2538,-0.2538,-0.2538,-0.2539,0,-0.1979,-0.2058,-0.2216,-0.2268,-0.2368,-0.2488,-0.2568,-0.2636,-0.2711,-0.2711,-0.2775,-0.274,-0.2736,-0.2672,-0.2621,-0.2473,-0.2542,-0.2393,-0.2358,-0.2261,-0.2239,-0.2204,-0.2242,-0.2535,-0.2535,-0.2536,-0.2537,0,-0.1897,-0.2006,-0.2112,-0.2282,-0.2341,-0.2396,-0.2552,-0.2579,-0.2678,-0.2671,-0.2677,-0.2689,-0.2591,-0.257,-0.2497,-0.244,-0.2313,-0.23,-0.2147,-0.2097,-0.1961,-0.2007,-0.1962,-0.1903,-0.2131,-0.2128,-0.2125,0,-0.187,-0.1911,-0.2073,-0.2102,-0.2176,-0.2294,-0.234,-0.2515,-0.2523,-0.2589,-0.2534,-0.2499,-0.2393,-0.2273,-0.2192,-0.2101,-0.214,-0.1942,-0.1971,-0.1931,-0.1959,-0.2007,-0.1965,-0.1805,-0.18,-0.1795,-0.1792,0,-0.18,-0.1828,-0.1893,-0.1962,-0.2019,-0.2107,-0.2192,-0.2218,-0.2339,-0.2346,-0.2279,-0.2234,-0.2111,-0.1954,-0.1869,-0.1808,-0.1901,-0.1849,-0.1873,-0.1755,-0.1745,-0.1676,-0.186,-0.1754,-0.1758,-0.1761,-0.1763,-0.1764,-0.17,-0.1706,-0.1757,-0.1809,-0.1853,-0.1872,-0.1893,-0.1943,-0.1965,-0.1924,-0.1971,-0.1869,-0.1798,-0.1656,-0.159,-0.1482,-0.1587,-0.146,-0.1527,-0.1585,-0.1518,-0.1584,-0.1409,-0.1411,-0.1412,-0.1413,-0.1415,0,-0.1594,-0.1601,-0.1611,-0.1657,-0.1619,-0.1713,-0.1737,-0.1708,-0.1647,-0.1623,-0.1567,-0.1519,-0.1383,-0.1365,-0.1277,-0.1209,-0.1202,-0.1199,-0.1269,-0.1248,-0.1342,-0.1317,-0.1036,-0.1036,-0.1036,-0.1036,-0.1036,-0.1036,-0.1536,-0.1504,-0.1511,-0.1428,-0.1429,-0.1368,-0.1351,-0.13,-0.1276,-0.1178,-0.1162,-0.1186,-0.1234,-0.132,-0.1212,-0.1132,-0.1147,-0.1082,-0.1152,-0.1259,-0.1291,-0.1321,-0.1307,-0.1028,-0.1028,-0.0982,-0.0983,-0.0983]},{"header":{"parameterUnit":"m.s-1","parameterCategory":2,"la1":30.2991,"la2":30.254,"lo1":-89.0895,"lo2":-89.0444,"dy":0.0017,"dx":0.0017,"nx":28,"ny":28,"refTime":"2025-08-16T09:00:00:Z","depth":"0","parameterNumber":3,"parameterNumberName":"V-component_of_CURRENTS"},"data":[0,0,0,0,0,0,0,0,0,0,0,0,0,0,0,0,0,0,0,0,0,0,0,0,0,0,0,0,0,0,0,0,0,0,0,0,0,0,0,0,0,0,0,0,0,0,0,0,0,0,0,0,0,0,0,0,0,0,-0.0081,-0.008,0,-0.0002,-0.0001,-0.0,0.0051,0.0051,0.0052,0.0052,0.0104,0.0105,0.0106,0,0,0,0,0,0,0,0,0,0,0,0,0,-0.0135,-0.0134,-0.0081,-0.008,-0.0079,-0.0002,-0.0001,-0.0,0.0051,0.0051,0.0052,0.0052,0.0103,0.0104,0.0106,0,0,0,0,0,0,0,0,0,0,0,0,0,-0.009,-0.0134,-0.0081,-0.0044,-0.004,-0.0002,-0.0001,0.0,0.0051,0.0051,0.0052,0.0052,0.0103,0.0104,0.0106,0.0105,0,0,0.0111,0.0111,0,0,0,0,0,0,0,0,-0.0092,-0.0088,-0.0051,-0.0047,-0.0042,0.0015,-0.0001,0.0034,0.0051,0.0016,0.0052,0.0053,0.0071,0.0075,0.0089,0.0107,0.011,0.0111,0.0112,0.0112,0.0113,0,0,0,0,0,0,0,-0.0096,-0.0091,-0.005,-0.005,-0.0044,-0.0013,-0.0007,0.0006,0.0039,0.0019,0.0023,0.0032,0.0073,0.0088,0.0091,0.011,0.0111,0.0112,0.0113,0.0114,0.0151,0.0151,0,0,0,0,0,0,-0.0108,-0.0094,-0.0053,-0.0048,-0.0066,-0.0013,-0.0006,-0.0004,0.004,0.0047,0.0032,0.0034,0.0085,0.0089,0.0093,0.009,0.0112,0.0114,0.0115,0.0151,0.0151,0.0151,0,0,0,0,0,0,-0.011,-0.0106,-0.0056,-0.0068,-0.006,-0.0013,-0.0011,-0.0002,0.0015,0.005,0.0056,0.0041,0.0085,0.009,0.0102,0.0093,0.0115,0.0116,0.0151,0.0151,0.0151,0.0088,0,0,0,0,0,0,-0.0112,-0.0107,-0.011,-0.007,-0.0059,-0.0037,-0.0011,-0.0001,0.002,0.0024,0.0059,0.0065,0.0086,0.01,0.0104,0.0095,0.0117,0.0151,0.0151,0.0151,0.009,0.0086,0.0082,0,0,0,0,0,-0.0114,-0.0126,-0.0111,-0.0106,-0.0066,-0.0037,-0.0029,0.0006,0.0019,0.0024,0.0046,0.0064,0.0104,0.0101,0.0106,0.0097,0.0151,0.0151,0.0151,0.0091,0.0086,0.0082,0,0,0,0,0,0,-0.015,-0.012,-0.0103,-0.0105,-0.0073,-0.0028,-0.0026,0.0002,0.0025,0.0025,0.0059,0.0066,0.0073,0.0096,0.0092,0.0111,0.0132,0.0133,0.0085,0.0081,0.0077,0.0065,0.0119,0,0,0,0,0,-0.016,-0.016,-0.0122,-0.0121,-0.0113,-0.0069,-0.0054,-0.0027,-0.0,0.0011,0.0037,0.0062,0.0077,0.0087,0.0105,0.0112,0.0136,0.0113,0.0109,0.0106,0.0101,0.0143,0.0143,0.0151,0.0151,0.0151,0,0,-0.0171,-0.0156,-0.0154,-0.0128,-0.0106,-0.0102,-0.0059,-0.0041,-0.0037,0.001,0.0016,0.0045,0.0075,0.0082,0.0089,0.0101,0.0112,0.0106,0.0102,0.01,0.0143,0.0143,0.0142,0.0151,0.0151,0.0151,0,0,-0.0202,-0.0186,-0.0199,-0.0179,-0.0149,-0.0126,-0.0123,-0.0082,-0.0065,-0.0048,-0.0018,0.0008,0.0035,0.0057,0.007,0.0058,0.0088,0.0065,0.0036,0.0077,0.0076,0.0076,0.0084,0.0085,0.0066,0.0066,0.0065,0,-0.0217,-0.0229,-0.0196,-0.0203,-0.0197,-0.0143,-0.0157,-0.0131,-0.0087,-0.008,-0.0055,-0.0004,0.0023,0.0034,0.0031,0.0048,0.0066,0.0047,0.0071,0.0071,0.0072,0.0081,0.0083,0.0063,0.0063,0.0063,0.0064,0,-0.0254,-0.0263,-0.0272,-0.0267,-0.0256,-0.0256,-0.0221,-0.0207,-0.0179,-0.0145,-0.0119,-0.0067,-0.0034,-0.0019,0.0,0.0017,0.0024,0.0057,0.0078,0.0067,0.0077,0.008,0.0058,0.0059,0.006,0.0061,0,0,-0.0292,-0.0299,-0.0301,-0.0319,-0.0292,-0.0292,-0.0291,-0.0276,-0.0277,-0.0216,-0.0207,-0.016,-0.0114,-0.0095,-0.0054,-0.0014,0.0003,0.0018,0.0022,0.0016,0.0067,0.0111,0.0119,0.0041,0.0041,0.0042,0.0062,0,-0.0333,-0.0376,-0.036,-0.0398,-0.0424,-0.0382,-0.0388,-0.0362,-0.0326,-0.0299,-0.0228,-0.02,-0.0149,-0.0128,-0.0081,-0.0018,0.0012,-0.0008,0.0087,0.0089,0.0123,0.0126,0.0174,0.02,0.0066,0.0066,0.0067,0,-0.0375,-0.0404,-0.0455,-0.0484,-0.049,-0.0495,-0.05,-0.0492,-0.0438,-0.0407,-0.0349,-0.0285,-0.0226,-0.0168,-0.0066,-0.0082,-0.0018,0.0039,0.0042,0.0109,0.0141,0.0196,0.0212,0.0384,0.0072,0.0072,0.0072,0,-0.0434,-0.0472,-0.0523,-0.0527,-0.0543,-0.0557,-0.0558,-0.0524,-0.0526,-0.0464,-0.0447,-0.0358,-0.0311,-0.021,-0.0085,-0.0079,0.0034,0.006,0.0153,0.0156,0.023,0.0238,0.042,0.0132,0.0132,0.0132,0.0132,0,-0.0489,-0.0529,-0.0554,-0.0581,-0.0642,-0.0619,-0.0655,-0.0639,-0.0603,-0.0605,-0.0502,-0.0475,-0.0315,-0.0222,-0.0111,0.0031,0.0014,0.0146,0.0173,0.0207,0.0213,0.0394,0.046,0.0133,0.0133,0.0132,0.0132,0,-0.0543,-0.0557,-0.0621,-0.0657,-0.0672,-0.071,-0.0729,-0.0742,-0.0702,-0.0696,-0.0678,-0.0567,-0.0443,-0.0285,-0.0121,-0.0008,0.0234,0.0179,0.0193,0.0224,0.0475,0.0534,0.0714,0.0815,0.0277,0.0278,0.028,0,-0.0575,-0.0612,-0.0684,-0.0724,-0.0741,-0.0787,-0.0813,-0.0796,-0.0804,-0.0752,-0.0751,-0.0631,-0.0541,-0.0286,-0.0053,0.015,0.0288,0.0313,0.0348,0.0502,0.0587,0.0628,0.0703,0.0405,0.0407,0.0409,0.041,0,-0.0633,-0.0652,-0.0703,-0.0794,-0.084,-0.0895,-0.0924,-0.0951,-0.0918,-0.0903,-0.0855,-0.0779,-0.0512,-0.0242,0.0048,0.0184,0.0459,0.0353,0.0526,0.0716,0.076,0.0866,0.0351,0.0425,0.0424,0.0422,0.0422,0.0421,-0.0663,-0.0713,-0.0776,-0.0857,-0.0917,-0.0976,-0.1013,-0.1029,-0.1045,-0.1009,-0.0938,-0.0801,-0.0378,0.0045,0.021,0.0625,0.0585,0.0754,0.0809,0.0834,0.0958,0.0462,0.0567,0.0566,0.0565,0.0565,0.0564,0,-0.0695,-0.0749,-0.0832,-0.0925,-0.0992,-0.1011,-0.1066,-0.1078,-0.1091,-0.104,-0.0977,-0.055,-0.0131,0.0282,0.0856,0.1079,0.1134,0.1191,0.1278,0.1332,0.0912,0.0948,0.1125,0.1125,0.1125,0.1125,0.1124,0.1124,-0.0712,-0.079,-0.0836,-0.0958,-0.1021,-0.1085,-0.111,-0.112,-0.1083,-0.0931,-0.0724,-0.0565,0.0067,0.0943,0.148,0.1533,0.1733,0.1705,0.1806,0.1538,0.1501,0.1467,0.1521,0.1815,0.1816,0.2229,0.2233,0.2236]}],[{"header":{"parameterUnit":"m.s-1","parameterCategory":2,"la1":30.2991,"la2":30.254,"lo1":-89.0895,"lo2":-89.0444,"dy":0.0017,"dx":0.0017,"nx":28,"ny":28,"refTime":"2025-08-16T09:00:00:Z","depth":"2","parameterNumber":2,"parameterNumberName":"U-component_of_CURRENTS"},"data":[0,0,0,0,0,0,0,0,0,0,0,0,0,0,0,0,0,0,0,0,0,0,0,0,0,0,0,0,0,0,0,0,0,0,0,0,0,0,0,0,0,0,0,0,0,0,0,0,0,0,0,0,0,0,0,0,0,0,-0.1918,-0.1919,0,-0.2066,-0.2069,-0.2071,-0.2139,-0.2138,-0.2137,-0.2136,-0.2205,-0.2207,-0.221,0,0,0,0,0,0,0,0,0,0,0,0,0,-0.1819,-0.182,-0.1918,-0.1919,-0.192,-0.2066,-0.2069,-0.2072,-0.2139,-0.2138,-0.2137,-0.2136,-0.2204,-0.2207,-0.221,0,0,0,0,0,0,0,0,0,0,0,0,0,-0.1912,-0.1821,-0.1918,-0.1965,-0.197,-0.2065,-0.2069,-0.2072,-0.214,-0.2138,-0.2137,-0.2135,-0.2203,-0.2207,-0.2211,-0.2265,0,0,-0.2223,-0.2225,0,0,0,0,0,0,0,0,-0.1907,-0.1917,-0.1957,-0.1962,-0.1968,-0.2075,-0.2058,-0.213,-0.214,-0.2085,-0.2136,-0.2135,-0.2149,-0.2158,-0.2203,-0.2268,-0.2271,-0.2224,-0.2226,-0.2228,-0.2229,0,0,0,0,0,0,0,-0.19,-0.1911,-0.1986,-0.1958,-0.1965,-0.202,-0.2032,-0.2074,-0.2129,-0.209,-0.2093,-0.2095,-0.2152,-0.2199,-0.2204,-0.2272,-0.2224,-0.2227,-0.223,-0.2231,-0.2365,-0.2366,0,0,0,0,0,0,-0.1859,-0.1905,-0.1981,-0.199,-0.1923,-0.2022,-0.2036,-0.2049,-0.213,-0.2139,-0.2096,-0.2097,-0.2192,-0.2199,-0.2207,-0.2276,-0.2228,-0.2232,-0.2234,-0.2364,-0.2365,-0.2366,0,0,0,0,0,0,-0.1856,-0.1865,-0.1975,-0.1943,-0.1959,-0.2023,-0.204,-0.2053,-0.2101,-0.2134,-0.2143,-0.2129,-0.2192,-0.2201,-0.227,-0.2278,-0.2233,-0.2237,-0.2362,-0.2364,-0.2366,-0.2413,0,0,0,0,0,0,-0.1853,-0.1864,-0.1869,-0.194,-0.1959,-0.2037,-0.204,-0.2056,-0.21,-0.2104,-0.2165,-0.2171,-0.2191,-0.2264,-0.2274,-0.2283,-0.224,-0.2361,-0.2363,-0.2365,-0.241,-0.2416,-0.2422,0,0,0,0,0,-0.1849,-0.1864,-0.1869,-0.1878,-0.1962,-0.2038,-0.2055,-0.2101,-0.2102,-0.2138,-0.2187,-0.2169,-0.2282,-0.2271,-0.2281,-0.2291,-0.236,-0.2363,-0.2365,-0.2408,-0.2415,-0.2421,0,0,0,0,0,0,-0.1831,-0.1874,-0.188,-0.1908,-0.1965,-0.2045,-0.2072,-0.2106,-0.2179,-0.2177,-0.221,-0.2221,-0.2274,-0.2284,-0.2269,-0.2333,-0.2307,-0.2312,-0.2336,-0.2343,-0.2348,-0.234,-0.2244,0,0,0,0,0,-0.1823,-0.1841,-0.1898,-0.1921,-0.1941,-0.2008,-0.2044,-0.2082,-0.2145,-0.2176,-0.2231,-0.2268,-0.2296,-0.2321,-0.2356,-0.2412,-0.2382,-0.2416,-0.2421,-0.2426,-0.2426,-0.2445,-0.2452,-0.2375,-0.2374,-0.2374,0,0,-0.1819,-0.1844,-0.1854,-0.1917,-0.1958,-0.2022,-0.2029,-0.2087,-0.2157,-0.2169,-0.2285,-0.2297,-0.2315,-0.2375,-0.2396,-0.2385,-0.2418,-0.2429,-0.2433,-0.243,-0.2448,-0.2456,-0.2463,-0.2376,-0.2376,-0.2376,0,0,-0.1827,-0.1843,-0.1864,-0.1917,-0.1975,-0.2029,-0.2042,-0.2139,-0.2194,-0.2291,-0.2305,-0.2338,-0.241,-0.2435,-0.2444,-0.2504,-0.2446,-0.2491,-0.2521,-0.2541,-0.2547,-0.2552,-0.2459,-0.2456,-0.2497,-0.2497,-0.2497,0,-0.1819,-0.1856,-0.1887,-0.1934,-0.1974,-0.203,-0.2084,-0.2165,-0.2285,-0.2334,-0.2325,-0.2427,-0.2438,-0.2496,-0.2502,-0.2516,-0.2477,-0.2495,-0.2548,-0.2553,-0.2558,-0.2462,-0.2458,-0.2499,-0.2499,-0.2499,-0.2499,0,-0.1856,-0.1891,-0.191,-0.1985,-0.2042,-0.2095,-0.219,-0.2286,-0.2338,-0.2401,-0.248,-0.251,-0.2557,-0.2555,-0.2542,-0.2579,-0.2518,-0.255,-0.2529,-0.2569,-0.2463,-0.2458,-0.2503,-0.2502,-0.2501,-0.2501,0,0,-0.182,-0.1913,-0.192,-0.1963,-0.2068,-0.2125,-0.2251,-0.2369,-0.2434,-0.2533,-0.2616,-0.2646,-0.2636,-0.2644,-0.2635,-0.2642,-0.2609,-0.2601,-0.26,-0.2502,-0.2561,-0.2472,-0.2456,-0.2655,-0.2656,-0.2657,-0.2449,0,-0.1835,-0.1913,-0.1966,-0.2064,-0.2112,-0.2216,-0.2312,-0.243,-0.2514,-0.2624,-0.2664,-0.2715,-0.2678,-0.2676,-0.2685,-0.2634,-0.2608,-0.2656,-0.2542,-0.2536,-0.2452,-0.2455,-0.2297,-0.2098,-0.2444,-0.2443,-0.2442,0,-0.1852,-0.1902,-0.1978,-0.2091,-0.2118,-0.2192,-0.2344,-0.2443,-0.2599,-0.2655,-0.273,-0.276,-0.2781,-0.2756,-0.2682,-0.2709,-0.2629,-0.2585,-0.2577,-0.2481,-0.2442,-0.2129,-0.2076,-0.2433,-0.2434,-0.2435,-0.2435,0,-0.1806,-0.1916,-0.1969,-0.2013,-0.2148,-0.2215,-0.23,-0.2444,-0.2515,-0.268,-0.2701,-0.2776,-0.2741,-0.2741,-0.2629,-0.2656,-0.2528,-0.2564,-0.24,-0.2388,-0.2225,-0.2198,-0.2523,-0.2523,-0.2524,-0.2524,-0.2525,0,-0.1803,-0.185,-0.195,-0.1987,-0.2051,-0.2167,-0.2254,-0.2365,-0.2494,-0.2532,-0.2678,-0.268,-0.2732,-0.268,-0.2636,-0.2464,-0.2523,-0.2383,-0.235,-0.2228,-0.2206,-0.2498,-0.2498,-0.2516,-0.2518,-0.252,-0.2521,0,-0.1746,-0.1813,-0.1876,-0.1995,-0.2028,-0.2076,-0.2206,-0.226,-0.2378,-0.244,-0.2484,-0.2563,-0.2488,-0.2501,-0.2434,-0.2382,-0.2312,-0.2239,-0.2035,-0.1985,-0.2143,-0.2148,-0.2038,-0.2034,-0.203,-0.2027,-0.2024,0,-0.1723,-0.1745,-0.1843,-0.1857,-0.1906,-0.1994,-0.2033,-0.2192,-0.2236,-0.2334,-0.2328,-0.2318,-0.2285,-0.2156,-0.2107,-0.2017,-0.2134,-0.1808,-0.1874,-0.2125,-0.2104,-0.2114,-0.2124,-0.1624,-0.1618,-0.1614,-0.161,0,-0.166,-0.1685,-0.1726,-0.1749,-0.1788,-0.1843,-0.1914,-0.1938,-0.2083,-0.2106,-0.2097,-0.2098,-0.1989,-0.1849,-0.1754,-0.1701,-0.184,-0.1709,-0.2032,-0.1803,-0.1728,-0.171,-0.1734,-0.1568,-0.1573,-0.1576,-0.1578,-0.1579,-0.1586,-0.1584,-0.1615,-0.1632,-0.1659,-0.1666,-0.1671,-0.1733,-0.1761,-0.1772,-0.1834,-0.1768,-0.1747,-0.154,-0.1439,-0.1371,-0.1511,-0.1469,-0.1486,-0.1507,-0.1529,-0.1457,-0.1241,-0.1243,-0.1245,-0.1246,-0.1248,0,-0.149,-0.1493,-0.1494,-0.1505,-0.1475,-0.1537,-0.1556,-0.1533,-0.1495,-0.1525,-0.151,-0.1358,-0.1247,-0.1247,-0.1068,-0.1025,-0.1041,-0.0991,-0.1029,-0.1069,-0.1105,-0.1111,-0.0708,-0.0707,-0.0705,-0.0704,0,0,-0.1438,-0.1403,-0.1403,-0.1318,-0.1314,-0.1246,-0.1227,-0.1192,-0.1192,-0.1135,-0.1113,-0.1201,-0.1221,-0.0983,-0.0908,-0.0783,-0.0924,-0.0736,-0.1167,-0.1253,-0.1287,-0.1374,-0.1427,0,0,0,0,0]},{"header":{"parameterUnit":"m.s-1","parameterCategory":2,"la1":30.2991,"la2":30.254,"lo1":-89.0895,"lo2":-89.0444,"dy":0.0017,"dx":0.0017,"nx":28,"ny":28,"refTime":"2025-08-16T09:00:00:Z","depth":"2","parameterNumber":3,"parameterNumberName":"V-component_of_CURRENTS"},"data":[0,0,0,0,0,0,0,0,0,0,0,0,0,0,0,0,0,0,0,0,0,0,0,0,0,0,0,0,0,0,0,0,0,0,0,0,0,0,0,0,0,0,0,0,0,0,0,0,0,0,0,0,0,0,0,0,0,0,-0.0045,-0.0044,0,0.0029,0.0031,0.0032,0.0102,0.0102,0.0103,0.0103,0.0287,0.0291,0.0295,0,0,0,0,0,0,0,0,0,0,0,0,0,-0.0074,-0.0074,-0.0045,-0.0044,-0.0044,0.0029,0.0031,0.0032,0.0102,0.0102,0.0103,0.0103,0.0285,0.0291,0.0296,0,0,0,0,0,0,0,0,0,0,0,0,0,-0.0033,-0.0074,-0.0045,-0.0003,0.0001,0.0029,0.0031,0.0032,0.0101,0.0102,0.0103,0.0104,0.0284,0.029,0.0297,0.0323,0,0,0.0317,0.032,0,0,0,0,0,0,0,0,-0.0035,-0.0032,-0.001,-0.0006,-0.0001,0.0053,0.0088,0.0134,0.0101,0.0068,0.0103,0.0104,0.0216,0.0228,0.0245,0.0331,0.0339,0.0318,0.0322,0.0324,0.0326,0,0,0,0,0,0,0,-0.0038,-0.0034,-0.0011,-0.001,-0.0004,0.0029,0.0036,0.0097,0.0142,0.0071,0.0075,0.0076,0.022,0.0238,0.025,0.0342,0.0317,0.0323,0.0327,0.033,0.0459,0.0458,0,0,0,0,0,0,-0.0059,-0.0037,-0.0014,-0.0009,-0.0022,0.0029,0.0036,0.0038,0.0139,0.0153,0.0076,0.0079,0.0226,0.0242,0.0256,0.03,0.0324,0.0331,0.0334,0.0459,0.0459,0.0458,0,0,0,0,0,0,-0.006,-0.0058,-0.0017,-0.0025,-0.0018,0.0028,0.003,0.0039,0.0062,0.0141,0.0158,0.0088,0.0227,0.0247,0.0318,0.0308,0.0334,0.034,0.046,0.0459,0.0458,0.0384,0,0,0,0,0,0,-0.0061,-0.0059,-0.0062,-0.0026,-0.0018,-0.0008,0.0029,0.004,0.0059,0.0065,0.0157,0.0174,0.0229,0.0308,0.0325,0.0317,0.0345,0.0461,0.046,0.0459,0.0387,0.0381,0.0375,0,0,0,0,0,-0.0063,-0.0074,-0.0062,-0.0059,-0.0024,-0.0009,-0.0002,0.0036,0.0058,0.0061,0.0133,0.0172,0.0312,0.0314,0.0334,0.0328,0.0461,0.046,0.0459,0.039,0.0382,0.0375,0,0,0,0,0,0,-0.0087,-0.0068,-0.0053,-0.0058,-0.0039,0.0001,0.0004,0.0031,0.0088,0.01,0.0181,0.0204,0.0253,0.0302,0.0301,0.0358,0.0386,0.0389,0.0327,0.0321,0.0315,0.0287,0.035,0,0,0,0,0,-0.0097,-0.0098,-0.0075,-0.0078,-0.0074,-0.0035,-0.0023,0.0002,0.0051,0.0076,0.0146,0.0212,0.0261,0.0301,0.0353,0.04,0.0429,0.0403,0.0396,0.0391,0.0381,0.0457,0.0457,0.0454,0.0454,0.0454,0,0,-0.0107,-0.0097,-0.0097,-0.0083,-0.0065,-0.0067,-0.0025,-0.0014,-0.0,0.0089,0.0141,0.0196,0.0267,0.0312,0.0337,0.0356,0.0393,0.039,0.0385,0.0377,0.0455,0.0456,0.0456,0.0453,0.0453,0.0453,0,0,-0.0137,-0.0123,-0.0137,-0.0128,-0.0112,-0.009,-0.0091,-0.0048,-0.0015,0.0034,0.0095,0.0152,0.0235,0.0287,0.0321,0.0316,0.0355,0.0319,0.0279,0.0353,0.0354,0.0356,0.0333,0.0333,0.0323,0.0322,0.0322,0,-0.015,-0.0165,-0.0139,-0.0152,-0.0155,-0.0106,-0.0126,-0.0085,-0.0017,0.001,0.0039,0.0159,0.0222,0.0277,0.0266,0.0304,0.0318,0.0302,0.0346,0.0348,0.0351,0.0328,0.033,0.0319,0.0319,0.0319,0.032,0,-0.0189,-0.0202,-0.0212,-0.0213,-0.0212,-0.022,-0.0179,-0.0148,-0.0104,-0.0058,0.0009,0.0103,0.0169,0.0192,0.0228,0.0269,0.0257,0.0325,0.0363,0.0347,0.0323,0.0326,0.0313,0.0315,0.0316,0.0317,0,0,-0.0221,-0.0238,-0.0242,-0.0262,-0.0248,-0.0255,-0.0233,-0.0204,-0.019,-0.0101,-0.0062,0.0022,0.0073,0.0112,0.0175,0.0238,0.0251,0.0275,0.028,0.0246,0.0338,0.0376,0.0382,0.0333,0.0335,0.0336,0.029,0,-0.0262,-0.0309,-0.0302,-0.0346,-0.0373,-0.0335,-0.0329,-0.0289,-0.0233,-0.0172,-0.0061,-0.0002,0.0044,0.0075,0.0143,0.0243,0.0264,0.0252,0.0362,0.0363,0.04,0.0391,0.0395,0.0362,0.0293,0.0294,0.0294,0,-0.0305,-0.0334,-0.0389,-0.0428,-0.0437,-0.0448,-0.0441,-0.0424,-0.0328,-0.0282,-0.0194,-0.0102,-0.0006,0.0051,0.0182,0.017,0.0222,0.0294,0.0296,0.0366,0.0411,0.0381,0.037,0.0299,0.0299,0.0299,0.0298,0,-0.0352,-0.0398,-0.0449,-0.046,-0.0486,-0.0498,-0.0501,-0.0452,-0.044,-0.0334,-0.031,-0.0173,-0.0107,0.002,0.0152,0.0167,0.0295,0.0348,0.0409,0.0408,0.0451,0.0454,0.0415,0.0416,0.0416,0.0416,0.0416,0,-0.0405,-0.0445,-0.0474,-0.0503,-0.0563,-0.0557,-0.059,-0.0567,-0.0517,-0.0502,-0.037,-0.0321,-0.0105,0.0005,0.0125,0.0267,0.0269,0.0385,0.0421,0.0418,0.0418,0.0416,0.0416,0.0414,0.0414,0.0415,0.0415,0,-0.0451,-0.0467,-0.053,-0.0572,-0.0589,-0.0627,-0.0659,-0.0669,-0.0631,-0.06,-0.0568,-0.0431,-0.028,-0.0097,0.0104,0.0214,0.0368,0.0402,0.0335,0.0367,0.0415,0.0412,0.0462,0.0464,0.0465,0.0466,0.0467,0,-0.048,-0.0515,-0.0583,-0.0622,-0.0644,-0.0693,-0.0724,-0.0716,-0.0721,-0.0665,-0.0646,-0.0507,-0.0383,-0.0101,0.0141,0.0345,0.0356,0.0441,0.0504,0.0401,0.043,0.0425,0.0421,0.0483,0.0484,0.0485,0.0486,0,-0.0533,-0.0551,-0.0601,-0.0684,-0.0731,-0.0786,-0.0823,-0.0848,-0.0826,-0.0799,-0.0729,-0.062,-0.0348,-0.0068,0.0199,0.0329,0.043,0.0464,0.0409,0.0492,0.0425,0.0453,0.0447,0.0492,0.0492,0.0491,0.0491,0.0491,-0.0561,-0.0606,-0.0666,-0.0742,-0.0801,-0.0859,-0.0896,-0.0915,-0.0924,-0.0864,-0.0764,-0.0573,-0.033,0.0101,0.0287,0.0476,0.0479,0.0549,0.0545,0.054,0.0573,0.0516,0.0597,0.0597,0.0597,0.0597,0.0597,0,-0.059,-0.0641,-0.072,-0.0806,-0.0872,-0.0892,-0.0948,-0.0958,-0.0957,-0.0846,-0.0736,-0.0445,-0.0136,0.011,0.0422,0.059,0.0577,0.0613,0.0574,0.0568,0.0562,0.0594,0.0625,0.0625,0.0626,0.0626,0,0,-0.0607,-0.0678,-0.072,-0.0836,-0.0897,-0.0959,-0.0983,-0.0987,-0.0913,-0.0815,-0.0647,-0.0405,-0.0096,0.0124,0.0336,0.0496,0.0482,0.0505,0.0473,0.0398,0.039,0.0525,0.0568,0,0,0,0,0]}],[{"header":{"parameterUnit":"m.s-1","parameterCategory":2,"la1":30.2991,"la2":30.254,"lo1":-89.0895,"lo2":-89.0444,"dy":0.0017,"dx":0.0017,"nx":28,"ny":28,"refTime":"2025-08-16T09:00:00:Z","depth":"4","parameterNumber":2,"parameterNumberName":"U-component_of_CURRENTS"},"data":[0,0,0,0,0,0,0,0,0,0,0,0,0,0,0,0,0,0,0,0,0,0,0,0,0,0,0,0,0,0,0,0,0,0,0,0,0,0,0,0,0,0,0,0,0,0,0,0,0,0,0,0,0,0,0,0,0,0,-0.1319,-0.1319,0,-0.1319,-0.1319,-0.132,-0.1331,-0.1331,-0.133,-0.133,-0.1397,-0.1399,-0.1401,0,0,0,0,0,0,0,0,0,0,0,0,0,-0.1287,-0.1288,-0.1319,-0.1318,-0.1318,-0.1319,-0.1319,-0.132,-0.1331,-0.1331,-0.133,-0.133,-0.1396,-0.1398,-0.1401,0,0,0,0,0,0,0,0,0,0,0,0,0,-0.1301,-0.1289,-0.1319,-0.1319,-0.1319,-0.1319,-0.1319,-0.132,-0.1331,-0.1331,-0.133,-0.133,-0.1395,-0.1398,-0.1401,-0.1426,0,0,-0.141,-0.1412,0,0,0,0,0,0,0,0,-0.13,-0.1303,-0.132,-0.1319,-0.1319,-0.1319,-0.1332,-0.1357,-0.1331,-0.1333,-0.133,-0.133,-0.1374,-0.1378,-0.1386,-0.143,-0.1432,-0.1411,-0.1412,-0.1414,-0.1414,0,0,0,0,0,0,0,-0.1299,-0.1303,-0.1325,-0.1319,-0.1318,-0.1305,-0.1307,-0.1337,-0.1361,-0.1332,-0.1332,-0.1323,-0.1375,-0.1383,-0.1388,-0.1433,-0.141,-0.1413,-0.1415,-0.1416,-0.1546,-0.1547,0,0,0,0,0,0,-0.1291,-0.1302,-0.1325,-0.1324,-0.1302,-0.1305,-0.1308,-0.1324,-0.1359,-0.1362,-0.1323,-0.1323,-0.1378,-0.1385,-0.139,-0.1454,-0.1414,-0.1416,-0.1418,-0.1544,-0.1546,-0.1548,0,0,0,0,0,0,-0.1291,-0.1294,-0.1325,-0.1307,-0.1309,-0.1306,-0.1324,-0.1324,-0.134,-0.135,-0.1355,-0.1337,-0.1378,-0.1386,-0.1433,-0.1455,-0.1418,-0.142,-0.1542,-0.1545,-0.1547,-0.156,0,0,0,0,0,0,-0.129,-0.1295,-0.1316,-0.1307,-0.1309,-0.1326,-0.1323,-0.1324,-0.1331,-0.1332,-0.1364,-0.1369,-0.1379,-0.1428,-0.1436,-0.1459,-0.1423,-0.154,-0.1543,-0.1546,-0.1558,-0.1563,-0.1567,0,0,0,0,0,-0.1289,-0.1309,-0.1318,-0.1321,-0.1336,-0.1326,-0.1327,-0.1326,-0.1332,-0.134,-0.1372,-0.1369,-0.1453,-0.1432,-0.1441,-0.1465,-0.1539,-0.1542,-0.1546,-0.1556,-0.1562,-0.1567,0,0,0,0,0,0,-0.13,-0.1312,-0.1321,-0.1344,-0.1337,-0.1326,-0.1334,-0.1333,-0.1364,-0.1373,-0.139,-0.1398,-0.1449,-0.146,-0.1436,-0.1514,-0.1496,-0.1501,-0.15,-0.1507,-0.1511,-0.1501,-0.1425,0,0,0,0,0,-0.1315,-0.1342,-0.1334,-0.1353,-0.1353,-0.135,-0.135,-0.1347,-0.136,-0.1373,-0.14,-0.1435,-0.147,-0.1489,-0.1522,-0.1564,-0.1565,-0.1587,-0.1591,-0.1595,-0.1595,-0.1612,-0.1617,-0.156,-0.156,-0.156,0,0,-0.132,-0.1332,-0.1346,-0.1358,-0.136,-0.1359,-0.1352,-0.1352,-0.1365,-0.1378,-0.1427,-0.1455,-0.1487,-0.1534,-0.1558,-0.1546,-0.1615,-0.16,-0.1603,-0.16,-0.1616,-0.1621,-0.1626,-0.1563,-0.1562,-0.1562,0,0,-0.1328,-0.136,-0.1376,-0.1372,-0.1369,-0.1374,-0.1375,-0.1378,-0.1397,-0.1436,-0.1456,-0.1492,-0.155,-0.1571,-0.159,-0.1642,-0.1642,-0.1663,-0.1677,-0.1693,-0.1697,-0.1701,-0.1715,-0.172,-0.1663,-0.1663,-0.1663,0,-0.1335,-0.1354,-0.1374,-0.1374,-0.1371,-0.1382,-0.1379,-0.1403,-0.1425,-0.1449,-0.1454,-0.1541,-0.1564,-0.1614,-0.1636,-0.165,-0.1664,-0.1647,-0.1697,-0.17,-0.1703,-0.1717,-0.1722,-0.1664,-0.1664,-0.1664,-0.1664,0,-0.1335,-0.1351,-0.1355,-0.1375,-0.1382,-0.1378,-0.1399,-0.1432,-0.1463,-0.1481,-0.1544,-0.1578,-0.1623,-0.1642,-0.1657,-0.1702,-0.1706,-0.1699,-0.1674,-0.1709,-0.1722,-0.1727,-0.1665,-0.1665,-0.1665,-0.1664,0,0,-0.1334,-0.1355,-0.1356,-0.1359,-0.1377,-0.1379,-0.1425,-0.146,-0.1493,-0.1535,-0.1576,-0.1637,-0.1655,-0.1678,-0.1701,-0.1718,-0.1754,-0.1725,-0.1725,-0.1725,-0.1799,-0.1662,-0.1654,-0.176,-0.1761,-0.1762,-0.1799,0,-0.1322,-0.1333,-0.1347,-0.1354,-0.1356,-0.1386,-0.1428,-0.1468,-0.1514,-0.1566,-0.1607,-0.1658,-0.1669,-0.1696,-0.1718,-0.1755,-0.1768,-0.1745,-0.1777,-0.1778,-0.1639,-0.1655,-0.1764,-0.1803,-0.1804,-0.1805,-0.1805,0,-0.1304,-0.1317,-0.1333,-0.1351,-0.1357,-0.1375,-0.1442,-0.1474,-0.1551,-0.1587,-0.1639,-0.1675,-0.1732,-0.1723,-0.1788,-0.1779,-0.179,-0.1804,-0.1805,-0.1672,-0.1649,-0.1761,-0.1814,-0.1813,-0.1812,-0.1812,-0.1811,0,-0.129,-0.1298,-0.1322,-0.1322,-0.1359,-0.1386,-0.1415,-0.1487,-0.1517,-0.1603,-0.1639,-0.1703,-0.1753,-0.1775,-0.1816,-0.1811,-0.1871,-0.1859,-0.1742,-0.1734,-0.184,-0.1836,-0.188,-0.188,-0.188,-0.188,-0.188,0,-0.1258,-0.1266,-0.132,-0.1324,-0.1351,-0.1381,-0.1422,-0.1468,-0.1527,-0.1573,-0.1649,-0.1696,-0.1772,-0.1818,-0.1828,-0.18,-0.188,-0.174,-0.1728,-0.1847,-0.1844,-0.1843,-0.1839,-0.1881,-0.1881,-0.1881,-0.1881,0,-0.1219,-0.126,-0.1281,-0.1331,-0.1344,-0.1367,-0.1399,-0.1428,-0.1503,-0.1567,-0.1596,-0.1705,-0.1765,-0.181,-0.1862,-0.1807,-0.1793,-0.176,-0.1893,-0.189,-0.1644,-0.164,-0.1621,-0.1617,-0.1613,-0.161,-0.1607,0,-0.1192,-0.1209,-0.1279,-0.1296,-0.1314,-0.1344,-0.1366,-0.1416,-0.1442,-0.1568,-0.1596,-0.1686,-0.175,-0.1713,-0.1765,-0.1742,-0.172,-0.17,-0.1652,-0.1624,-0.1615,-0.1618,-0.1619,-0.1601,-0.1599,-0.1598,-0.1597,0,-0.1128,-0.1183,-0.1204,-0.1245,-0.1274,-0.1288,-0.1319,-0.1321,-0.1408,-0.1497,-0.155,-0.1567,-0.1627,-0.1644,-0.1633,-0.162,-0.1702,-0.1658,-0.1665,-0.1621,-0.1598,-0.1594,-0.16,-0.1584,-0.1586,-0.1587,-0.1588,0,-0.1083,-0.1091,-0.114,-0.1157,-0.12,-0.1206,-0.1234,-0.1257,-0.128,-0.1416,-0.1443,-0.1541,-0.1638,-0.1582,-0.1581,-0.154,-0.1506,-0.1447,-0.1465,-0.1481,-0.1409,-0.1358,-0.1253,0,0,0,0,0,-0.1019,-0.1013,-0.1032,-0.1048,-0.1094,-0.1111,-0.1187,-0.1226,-0.1326,-0.1327,-0.1365,-0.1412,-0.1408,-0.1453,-0.1376,-0.149,-0.1499,-0.1392,-0.144,-0.1508,-0.1524,-0.1448,0,0,0,0,0,0,-0.0975,-0.0993,-0.0994,-0.0947,-0.0939,-0.0968,-0.1017,-0.1097,-0.1092,-0.1214,-0.122,-0.1306,-0.132,-0.1426,-0.1342,-0.1348,-0.1343,-0.1439,-0.1435,-0.1499,-0.1513,-0.1526,-0.1454,0,0,0,0,0]},{"header":{"parameterUnit":"m.s-1","parameterCategory":2,"la1":30.2991,"la2":30.254,"lo1":-89.0895,"lo2":-89.0444,"dy":0.0017,"dx":0.0017,"nx":28,"ny":28,"refTime":"2025-08-16T09:00:00:Z","depth":"4","parameterNumber":3,"parameterNumberName":"V-component_of_CURRENTS"},"data":[0,0,0,0,0,0,0,0,0,0,0,0,0,0,0,0,0,0,0,0,0,0,0,0,0,0,0,0,0,0,0,0,0,0,0,0,0,0,0,0,0,0,0,0,0,0,0,0,0,0,0,0,0,0,0,0,0,0,-0.0079,-0.0079,0,-0.0087,-0.0087,-0.0088,-0.0066,-0.0065,-0.0065,-0.0064,-0.0012,-0.0011,-0.001,0,0,0,0,0,0,0,0,0,0,0,0,0,-0.0071,-0.0071,-0.0079,-0.0079,-0.0079,-0.0087,-0.0087,-0.0088,-0.0066,-0.0065,-0.0065,-0.0064,-0.0012,-0.0011,-0.001,0,0,0,0,0,0,0,0,0,0,0,0,0,-0.0076,-0.0071,-0.0079,-0.007,-0.0069,-0.0087,-0.0087,-0.0088,-0.0066,-0.0065,-0.0064,-0.0063,-0.0012,-0.0011,-0.001,-0.0021,0,0,-0.0006,-0.0006,0,0,0,0,0,0,0,0,-0.0076,-0.0076,-0.0071,-0.0071,-0.007,-0.0075,-0.0066,-0.0063,-0.0066,-0.0067,-0.0064,-0.0063,-0.0029,-0.0026,-0.003,-0.0019,-0.0017,-0.0006,-0.0006,-0.0005,-0.0005,0,0,0,0,0,0,0,-0.0075,-0.0076,-0.0082,-0.0071,-0.0071,-0.0075,-0.0074,-0.0065,-0.0051,-0.0067,-0.0065,-0.0067,-0.0027,-0.0031,-0.0028,-0.0016,-0.0006,-0.0005,-0.0004,-0.0004,-0.0022,-0.0023,0,0,0,0,0,0,-0.0075,-0.0076,-0.0081,-0.0082,-0.0071,-0.0076,-0.0075,-0.0074,-0.0052,-0.0049,-0.0068,-0.0066,-0.0033,-0.0029,-0.0026,-0.0046,-0.0005,-0.0004,-0.0003,-0.0021,-0.0023,-0.0024,0,0,0,0,0,0,-0.0075,-0.0076,-0.0081,-0.008,-0.0081,-0.0077,-0.0076,-0.0075,-0.0077,-0.0055,-0.0049,-0.0071,-0.0033,-0.0028,-0.0024,-0.0043,-0.0003,-0.0002,-0.002,-0.0022,-0.0023,-0.008,0,0,0,0,0,0,-0.0075,-0.0075,-0.0077,-0.0079,-0.0081,-0.0101,-0.0077,-0.0075,-0.008,-0.0077,-0.0056,-0.005,-0.0031,-0.0026,-0.0023,-0.0041,-0.0001,-0.0018,-0.002,-0.0023,-0.0076,-0.0083,-0.0089,0,0,0,0,0,-0.0074,-0.0084,-0.0077,-0.0078,-0.0082,-0.0102,-0.0104,-0.0097,-0.0081,-0.0093,-0.0074,-0.005,-0.0039,-0.0026,-0.0022,-0.004,-0.0017,-0.002,-0.0022,-0.0073,-0.0082,-0.0089,0,0,0,0,0,0,-0.0085,-0.0083,-0.0075,-0.0084,-0.0096,-0.0099,-0.0108,-0.0102,-0.0099,-0.0089,-0.0063,-0.0057,-0.0064,-0.0046,-0.0033,-0.0054,-0.0025,-0.0027,-0.0066,-0.0073,-0.008,-0.008,-0.0,0,0,0,0,0,-0.0088,-0.0091,-0.0096,-0.0104,-0.0109,-0.0108,-0.0115,-0.0111,-0.0108,-0.0106,-0.009,-0.0076,-0.0075,-0.0068,-0.0064,-0.007,-0.0022,-0.0081,-0.0087,-0.0093,-0.0091,-0.0059,-0.0062,-0.0033,-0.0033,-0.0033,0,0,-0.0096,-0.0095,-0.0097,-0.0107,-0.0111,-0.0134,-0.011,-0.0124,-0.0141,-0.01,-0.0113,-0.0099,-0.0083,-0.0095,-0.0096,-0.0079,-0.0069,-0.0096,-0.0101,-0.0096,-0.0062,-0.0064,-0.0067,-0.0035,-0.0034,-0.0034,0,0,-0.0119,-0.0111,-0.0124,-0.0138,-0.0148,-0.0152,-0.0158,-0.0163,-0.0163,-0.0176,-0.0154,-0.0153,-0.0144,-0.0142,-0.0138,-0.0178,-0.0108,-0.0174,-0.0201,-0.017,-0.0171,-0.0172,-0.008,-0.0072,-0.0173,-0.0173,-0.0173,0,-0.0129,-0.0145,-0.0135,-0.0157,-0.0174,-0.0163,-0.0193,-0.0198,-0.0203,-0.0205,-0.0187,-0.0183,-0.0172,-0.0185,-0.0199,-0.0193,-0.0135,-0.0171,-0.0176,-0.0177,-0.0176,-0.0082,-0.0072,-0.0176,-0.0176,-0.0175,-0.0175,0,-0.0166,-0.0182,-0.0194,-0.0215,-0.0234,-0.0258,-0.0266,-0.0277,-0.027,-0.0269,-0.0276,-0.0258,-0.0253,-0.0254,-0.0236,-0.0239,-0.0181,-0.019,-0.0153,-0.0182,-0.008,-0.007,-0.018,-0.0179,-0.0178,-0.0178,0,0,-0.0182,-0.0213,-0.0219,-0.0242,-0.0266,-0.0289,-0.0316,-0.0341,-0.0354,-0.0346,-0.0355,-0.0358,-0.0331,-0.0326,-0.0303,-0.0275,-0.0219,-0.0228,-0.0225,-0.0128,-0.0089,-0.009,-0.0077,-0.0219,-0.0219,-0.0219,-0.0004,0,-0.0216,-0.0266,-0.0274,-0.0332,-0.0362,-0.0367,-0.0397,-0.0413,-0.0411,-0.0414,-0.0389,-0.039,-0.0364,-0.0355,-0.0326,-0.0252,-0.0198,-0.0272,-0.0082,-0.0075,-0.0068,-0.007,-0.0217,0.0005,0.0007,0.0009,0.001,0,-0.0254,-0.0282,-0.034,-0.0391,-0.0405,-0.0438,-0.0477,-0.0501,-0.0499,-0.049,-0.0474,-0.0444,-0.0405,-0.0382,-0.025,-0.029,-0.0192,-0.0125,-0.0115,-0.0093,-0.0059,0.0031,0.0031,0.0029,0.0028,0.0026,0.0025,0,-0.0276,-0.0333,-0.038,-0.04,-0.0452,-0.0479,-0.0505,-0.0522,-0.0541,-0.0529,-0.0521,-0.0473,-0.0429,-0.0331,-0.0197,-0.0212,-0.0027,-0.0034,0.007,0.0075,0.004,0.0038,0.0066,0.0065,0.0065,0.0064,0.0064,0,-0.0314,-0.0355,-0.0395,-0.0425,-0.0487,-0.0507,-0.056,-0.0576,-0.0583,-0.0596,-0.0556,-0.053,-0.0414,-0.0302,-0.0185,-0.0014,-0.0012,0.0078,0.0116,0.0017,0.0009,0.0051,0.0047,0.0072,0.0071,0.0069,0.0068,0,-0.0338,-0.0362,-0.0423,-0.0479,-0.0502,-0.0544,-0.06,-0.0629,-0.0625,-0.0634,-0.0628,-0.0546,-0.0396,-0.0258,-0.007,0.0009,0.0157,0.022,0.0154,0.0184,0.0252,0.0242,0.0368,0.0369,0.037,0.0371,0.0372,0,-0.0355,-0.0385,-0.046,-0.05,-0.053,-0.0588,-0.0628,-0.0651,-0.0671,-0.0638,-0.0634,-0.0502,-0.043,-0.0136,-0.0008,0.0231,0.0244,0.0339,0.0244,0.0252,0.0277,0.0265,0.0253,0.0374,0.0374,0.0375,0.0375,0,-0.0385,-0.0409,-0.0456,-0.0535,-0.0588,-0.0646,-0.0695,-0.0711,-0.072,-0.0712,-0.062,-0.0491,-0.0309,-0.0119,0.007,0.0224,0.0272,0.0352,0.035,0.0261,0.0261,0.0282,0.0269,0.0379,0.0379,0.0378,0.0378,0,-0.04,-0.0437,-0.0495,-0.0563,-0.0632,-0.0684,-0.0712,-0.0713,-0.0721,-0.068,-0.0636,-0.0463,-0.0355,-0.0117,0.0048,0.0201,0.0227,0.0254,0.0257,0.0255,0.0124,0.0101,0.0211,0,0,0,0,0,-0.041,-0.045,-0.052,-0.0594,-0.0662,-0.0698,-0.0749,-0.0763,-0.076,-0.0697,-0.0669,-0.0505,-0.0254,-0.014,0.0018,0.0056,0.0241,0.0243,0.0271,0.0402,0.0398,0.0258,0,0,0,0,0,0,-0.0417,-0.0479,-0.0516,-0.06,-0.0651,-0.072,-0.075,-0.0752,-0.0711,-0.0683,-0.0541,-0.0473,-0.022,-0.0332,0.0024,0.0069,0.0104,0.0363,0.0366,0.0405,0.0401,0.0397,0.0252,0,0,0,0,0]}]]